Montreal Mirabel, Quebec

7:51 AM EDT on July 28, 2017 (GMT -0400)
Montreal Mirabel

Weather History for CYMX - January, 2012

Change the Weather History Date:

Tuesday, January 24, 2012

  Actual Average Record
Temperature  
Mean Temperature 36 °F -  
Max Temperature 39 °F 16 °F 44 °F (1999)
Min Temperature 32 °F 0 °F -22 °F (2011)
Degree Days  
Heating Degree Days 30    
Moisture  
Dew Point 31 °F    
Average Humidity 84    
Maximum Humidity 100    
Minimum Humidity 75    
Precipitation  
Precipitation 0.00 in - - ()
Sea Level Pressure  
Sea Level Pressure 29.85 in    
Wind  
Wind Speed 9 mph ()    
Max Wind Speed 18 mph    
Max Gust Speed 30 mph    
Visibility 9.9 miles    
Events Rain , Snow    
Averages and records for this station are not official NWS values.
T = Trace of Precipitation, MM = Missing Value Source: Averaged Metar Reports

Daily Weather History Graph

Daily Weather History Graph

Search for Another Location

Airport or City:

Trip Planner

Search our weather history database for the weather conditions in past years. The results will help you decide how hot, cold, wet, or windy it might be!

Date:

Astronomy

Jan. 24, 2012 Rise Set
Actual Time 7:26 AM EST 4:50 PM EST
Civil Twilight 6:54 AM EST 5:22 PM EST
Nautical Twilight 6:17 AM EST 5:58 PM EST
Astronomical Twilight 5:42 AM EST 6:34 PM EST
Moon 7:47 AM EST (1/24) 6:47 PM EST (1/24)
Length of Visible Light 10h 28m
Length of Day
9h 23m
New Moon, 2% of the Moon is Illuminated
Jan 24
New Moon
Jan 30
First Quarter
Feb 7
Full
Feb 14
Last Quarter
Feb 21
New

Hourly Weather History & Observations

Time (EST) Temp. Windchill Dew Point Humidity Pressure Visibility Wind Dir Wind Speed Gust Speed Precip Events Conditions
12:00 AM 33.8 °F 28.6 °F 32.0 °F 93% 29.70 in 1.2 mi North 5.8 mph - N/A Rain Light Rain
1:00 AM 33.8 °F 27.7 °F 33.8 °F 100% 29.69 in 2.0 mi North 6.9 mph - N/A Rain Light Rain
2:00 AM 33.8 °F - 33.8 °F 100% 29.71 in 1.5 mi North 2.3 mph - N/A Rain Light Rain
2:50 AM 33.8 °F - 33.8 °F 100% - 1.5 mi SE 2.3 mph - N/A Rain Light Rain
3:00 AM 35.6 °F 29.2 °F 35.6 °F 100% 29.71 in 2.0 mi SW 8.1 mph - N/A Rain Light Rain
4:00 AM 39.2 °F 30.5 °F 35.6 °F 87% 29.72 in 4.0 mi SW 16.1 mph 23.0 mph N/A Rain Light Rain
4:11 AM 39.2 °F 30.8 °F 35.6 °F 87% - 10.0 mi SW 15.0 mph 23.0 mph N/A   Overcast
4:42 AM 39.2 °F 29.8 °F 33.8 °F 81% - 10.0 mi SW 18.4 mph 28.8 mph N/A Rain Light Rain Showers
5:00 AM 39.2 °F 30.8 °F 33.8 °F 81% 29.75 in 10.0 mi SW 15.0 mph 24.2 mph N/A Rain Light Rain Showers
5:44 AM 37.4 °F 28.2 °F 33.8 °F 87% - 10.0 mi SSW 16.1 mph 23.0 mph N/A   Overcast
6:00 AM 37.4 °F 29.8 °F 32.0 °F 81% 29.78 in 15.0 mi SW 11.5 mph 21.9 mph N/A   Overcast
8:00 AM 37.4 °F 29.3 °F 32.0 °F 81% 29.81 in 15.0 mi SW 12.7 mph 23.0 mph N/A   Overcast
9:00 AM 37.4 °F 28.2 °F 30.2 °F 75% 29.83 in 15.0 mi SW 16.1 mph 21.9 mph N/A   Overcast
10:00 AM 37.4 °F 28.9 °F 30.2 °F 75% 29.85 in 15.0 mi WSW 13.8 mph 26.5 mph N/A   Overcast
11:00 AM 37.4 °F 29.3 °F 30.2 °F 75% 29.86 in 15.0 mi SW 12.7 mph 23.0 mph N/A   Overcast
11:33 AM 35.6 °F 26.2 °F 30.2 °F 81% - 15.0 mi SW 15.0 mph 29.9 mph N/A Snow Light Snow Showers
12:00 PM 35.6 °F 26.6 °F 30.2 °F 81% 29.86 in 15.0 mi SW 13.8 mph 24.2 mph N/A Snow Light Snow Showers
1:00 PM 35.6 °F 28.0 °F 30.2 °F 81% 29.87 in 10.0 mi SW 10.4 mph 20.7 mph N/A Snow Light Snow Showers
2:00 PM 35.6 °F 27.5 °F 30.2 °F 81% 29.88 in 4.0 mi SW 11.5 mph 19.6 mph N/A Snow Light Snow Showers
3:00 PM 35.6 °F 26.2 °F 28.4 °F 75% 29.88 in 10.0 mi WSW 15.0 mph 24.2 mph N/A Snow Light Snow Showers
4:00 PM 35.6 °F 27.1 °F 28.4 °F 75% 29.90 in 12.0 mi WSW 12.7 mph 26.5 mph N/A   Overcast
5:00 PM 33.8 °F 25.8 °F 28.4 °F 81% 29.92 in 5.0 mi WSW 10.4 mph 18.4 mph N/A Snow Light Snow Showers
6:00 PM 33.8 °F 27.7 °F 28.4 °F 81% 29.94 in 10.0 mi WSW 6.9 mph - N/A Snow Light Snow Showers
7:00 PM 33.8 °F 24.8 °F 28.4 °F 81% 29.96 in 15.0 mi WSW 12.7 mph 18.4 mph N/A Snow Light Snow Showers
8:00 PM 33.8 °F 27.0 °F 28.4 °F 81% 29.97 in 15.0 mi WSW 8.1 mph - N/A Snow Light Snow Showers
9:00 PM 33.8 °F 26.4 °F 26.6 °F 75% 29.99 in 15.0 mi WSW 9.2 mph - N/A   Overcast
10:00 PM 32.0 °F 24.8 °F 28.4 °F 87% 29.99 in 15.0 mi WSW 8.1 mph - N/A   Overcast
11:00 PM 32.0 °F 24.8 °F 26.6 °F 80% 30.00 in 10.0 mi WSW 8.1 mph - N/A Snow Light Snow Showers